Location: Bothwell
(42.3833°S, 147.0000°E)
Time: 10:33:58
(UTC+11:00)

Envisat - Pass Details

Date: 10 December 2022
Orbit: 763 x 765 km, 98.2° (Epoch: 28 January)

Event Time Altitude Azimuth Distance (km) Brightness Sun altitude
Rises 03:04:27 0° 61° (ENE) 3,235 6.3 -19.1°
Reaches altitude 10° 03:07:32 10° 81° (E) 2,317 5.7 -18.8°
Maximum altitude 03:10:38 17° 119° (ESE) 1,911 5.8 -18.6°
Drops below altitude 10° 03:13:46 10° 157° (SSE) 2,334 6.8 -18.3°
Sets 03:16:53 0° 176° (S) 3,269 7.4 -18.0°
